Estación Meteorológica Peña el Pijo (Robertgarden) [ 07/12/20 05:26:22 CEST ]

Fecha Hora Presion(HPa) Temp (°C) Humedad % Rocio (°C) Viento ( m/s) Direccion Lluvia 1Hora(mm) Lluvia 24H(mm) LLuvia Total(mm)
2020-Feb-19 01:09:33 1017.500 - - - - N     39.88
2020-Feb-19 02:11:58 1017.600 - - - - N     39.88
2020-Feb-19 03:09:30 1017.600 - - - - N     39.88
2020-Feb-19 04:08:58 1017.300 - - - - N     39.88
2020-Feb-19 05:08:58 1017.400 - - - - N     39.88
2020-Feb-19 06:09:37 1017.400 - - - - N     39.88
2020-Feb-19 07:08:48 1018.000 - - - - N     39.88
2020-Feb-19 08:09:10 1017.900 - - - - N     39.88
2020-Feb-19 09:09:10 1018.500 - - - - N     39.88
2020-Feb-19 10:09:04 1018.600 - - - - N     39.88
2020-Feb-19 11:08:59 1018.500 - - - - N     39.88
2020-Feb-19 12:09:07 1018.300 - - - - N     39.88
2020-Feb-19 13:09:30 1018.000 - - - - N     39.88
2020-Feb-19 14:09:04 1017.300 - - - - N     39.88
2020-Feb-19 15:09:20 1016.600 - - - - N     39.88
2020-Feb-19 16:08:59 1016.500 - - - - N     39.88
2020-Feb-19 17:09:13 1016.100 - - - - N     39.88
2020-Feb-19 18:09:09 1016.400 - - - - N     39.88
2020-Feb-19 19:09:18 1016.900 - - - - N     39.88
2020-Feb-19 20:09:03 1016.700 - - - - N     39.88
2020-Feb-19 21:08:55 1016.900 - - - - N     39.88
2020-Feb-19 22:09:14 1017.000 - - - - N     39.88
2020-Feb-19 23:08:59 1016.700 - - - - N     39.88

Temperatura Máxima:    Temperatura Mínima:
Presión Máxima:1018.600 Hpa    Presión Mínima:1016.100 Hpa


Volver